Regional Weather Roundup
Issued by NWS

Home | Current Version | Previous Version | Text Only | Print | Product List | Glossary Off
Versions: 1 2 3 4 5 6 7 8 9 10 11 12 13 14 15 16 17 18 19 20 21 22 23 24 25 26 27 28 29 30 31 32 33 34 35 36 37 38 39 40 41 42 43 44 45 46 47 48 49 50

851
ASUS43 KMKX 260711
RWRWI

WISCONSIN REGIONAL WEATHER ROUNDUP
NATIONAL WEATHER SERVICE MILWAUKEE/SULLIVAN WI
100 AM CST SUN FEB 26 2017

NOTE: "FAIR" INDICATES FEW OR NO CLOUDS BELOW 12,000 FEET WITH NO
SIGNIFICANT WEATHER AND/OR OBSTRUCTIONS TO VISIBILITY.

WIZ001-002-006>008-014>016-023>028-260800-
NORTHWEST WISCONSIN

CITY           SKY/WX    TMP DP  RH WIND       PRES   REMARKS
SUPERIOR ARPT  LGT SNOW  26  26  99 CALM      29.71F
ASHLAND        CLOUDY    27  19  72 SW10      29.73F WCI  17
HAYWARD        LGT SNOW  25  17  72 SW10      29.75S WCI  15
SIREN          CLOUDY    26  17  68 SW10      29.76S WCI  16
CUMBERLAND     CLOUDY    23  14  68 S13       29.77F WCI  11
RICE LAKE      CLOUDY    22  14  71 S8        29.81S WCI  13
CHETEK         CLOUDY    21  13  72 S7        29.80F WCI  12
LADYSMITH      PTCLDY    20  14  78 S10       29.81S WCI   9
EAU CLAIRE     LGT SNOW  21  14  74 S10       29.84F WCI  10
MENOMONIE      CLOUDY    21  14  74 S7        29.83F WCI  13
NEW RICHMOND   CLOUDY    24  15  71 S13       29.79F WCI  12
OSCEOLA        CLOUDY    25  17  71 S9        29.81F WCI  16
$$

WIZ003>005-009-010-017-018-260800-
NORTH CENTRAL WISCONSIN

CITY           SKY/WX    TMP DP  RH WIND       PRES   REMARKS
MANITOWISH WTR CLOUDY    18  15  88 S7        29.74S WCI   8
ARBOR VITAE    CLOUDY    19  15  82 S8          N/A  WCI   9
WOODRUFF       CLOUDY    19  15  82 S8          N/A  WCI   9
RHINELANDER    CLOUDY    17  11  77 SW10      29.78F WCI   5
EAGLE RIVER    CLEAR     17  10  76 SW8       29.76S WCI   6
LAND O LAKES   MOCLDY    17  13  84 CALM      29.76F
PHILLIPS       CLOUDY    19  13  79 SW8       29.77S WCI   9
TOMAHAWK       CLOUDY    18  12  78 S3        29.80S
MEDFORD        CLOUDY    17  11  76 SW9G17    29.81S WCI   6
MERRILL        NOT AVBL
$$

WIZ029-030-035-036-043>047-260800-
CENTRAL WISCONSIN

CITY           SKY/WX    TMP DP  RH WIND       PRES   REMARKS
WAUSAU         CLOUDY    17  11  77 SW12      29.84F WCI   4
MOSINEE        CLOUDY    18  14  86 SW8       29.87S WCI   7
MARSHFIELD     FLURRIES  19  12  74 SW10      29.85F WCI   7
STEVENS POINT  CLOUDY    14   9  81 SW6       29.89F WCI   5
WAUPACA        PTCLDY    16  10  77 S3        29.92S
WAUTOMA        PTCLDY    16  11  80 SW6       29.94S WCI   7
WISC RAPIDS    CLOUDY    20  13  74 SW13      29.91S WCI   7
CAMP DOUGLAS   CLOUDY    21  12  70 S6        29.92S WCI  13
$$

WIZ011>013-019>022-031-037>040-048>050-260800-
NORTHEAST WISCONSIN

CITY           SKY/WX    TMP DP  RH WIND       PRES   REMARKS
ANTIGO         CLOUDY    15  10  81 SW13      29.82S WCI   1
SHAWANO        MOCLDY    17  10  74 CALM      29.90S
OCONTO         MOCLDY    18   9  68 SW7       29.90F WCI   9
STURGEON BAY   CLEAR     18  11  74 SW12      29.91S WCI   5
GREEN BAY      CLEAR     19  12  74 S7        29.92F WCI  10
MANITOWOC      CLEAR     19  11  70 W7        29.94F WCI  10
APPLETON       PTCLDY    19  10  68 SW8       29.90S WCI   9
CLINTONVILLE   MOCLDY    16   9  73 S6        29.90S WCI   7
OSHKOSH        MOCLDY    16  10  77 S10       29.93F WCI   4
$$

WIZ032>034-041-042-053>061-260800-
SOUTHWEST WISCONSIN

CITY           SKY/WX    TMP DP  RH WIND       PRES   REMARKS
LA CROSSE      CLOUDY    26  16  65 S9        29.91F WCI  17
SPARTA         CLOUDY    22  15  73 CALM      29.93F
VIROQUA        CLOUDY    22  17  79 SW8       29.90F WCI  13
BOSCOBEL       CLOUDY    24  16  71 S5        29.97F WCI  18
PRAIRIE DU CHI CLOUDY    26  17  69 CALM      29.95F
PLATTEVILLE    CLOUDY    23  19  85 S7        29.97F WCI  15
$$

WIZ056-057-062-063-064-067-068-260800-
SOUTH CENTRAL WISCONSIN

CITY           SKY/WX    TMP DP  RH WIND       PRES   REMARKS
REEDSBURG      CLOUDY    20  15  80 SW6       29.94F WCI  12
BARABOO/DELLS  CLOUDY    20  14  76 SW5       29.94F WCI  14
LONE ROCK      CLOUDY    21  14  74 SE3       29.98F
MINERAL POINT  CLOUDY    23  21  93 CALM      29.95F
MADISON        CLOUDY    21  14  74 SW6       29.98S WCI  13
MIDDLETON      CLOUDY    22  17  82 SW3       29.98S
WATERTOWN      CLOUDY    17  14  86 SW5       29.98R WCI  10
MONROE         MOCLDY    23  18  80 SW8       29.98S WCI  14
JANESVILLE     CLOUDY    23  18  80 CALM      30.00F
$$

WIZ051-052-058>065-066-070>072-260800-
SOUTHEAST WISCONSIN

CITY           SKY/WX    TMP DP  RH WIND       PRES   REMARKS
MILWAUKEE      PTCLDY    23  12  62 CALM      29.99F
WAUKESHA       PTCLDY    18  12  79 SW5       29.99S WCI  11
MILWAUKEE/TIMM PTCLDY    21  12  68 S3        29.99F
RACINE         CLEAR     22  13  68 W6        30.02S WCI  14
KENOSHA        CLEAR     22  13  68 SW7       30.01S WCI  13
FOND DU LAC    CLEAR     19  11  70 SW8       29.95F WCI   9
SHEBOYGAN      CLEAR     18  11  74 W8        29.95S WCI   8
WEST BEND      MOCLDY    19  16  86 CALM      29.96F
JUNEAU         MOCLDY    18  13  84 SW6       29.97S WCI   9
$$

LSZ147-162-260800-
LAKE SUPERIOR

STATION/POSITION TIME  TEMP    WIND        PRES    WAVE
                       AIR SEA DIR/SP/G            HT/PER
                 (UTC) (F)     (DEG/KT/KT) (MB)    (FT/S)
DEVILS ISLAND    0700   27     220/ 14/ 17 1007.2F
PORT WING        0630   26     140/  1/  2 1006.8F
SAXON HARBOR     0640   27     200/  9/ 19 1007.1F
$$

LMZ867-665-643>646-260800-
LAKE MICHIGAN

STATION/POSITION TIME  TEMP    WIND        PRES    WAVE
                       AIR SEA DIR/SP/G            HT/PER
                 (UTC) (F)     (DEG/KT/KT) (MB)    (FT/S)
NORTHPORT PIER   0640   21        CALM     1012.2S
SISTER BAY       0635   21        CALM       N/A
ALGOMA LAKESHORE 0556             CALM       N/A
KEWAUNEE LAKESHO 0648   21     270/  8/ 14 1013.1R
SHEBOYGAN LAKESH 0700   22     250/  8/ 10 1015.4F
PORT WASHINGTON  0640   22     240/  4/  8 1016.3S
MILWAUKEE LAKESH 0650   24     270/  7/  9   N/A
KENOSHA   LAKESH 0700   24     260/  5/  8 1016.6
$$

TC  - TEMPERATURE IN CELSIUS
VSB - VISIBILITY IN STATUTE MILES
WCI - WIND CHILL INDEX
HX  - HEAT INDEX





USA.gov is the U.S. government's official web portal to all federal, state and local government web resources and services.